Location: Luxembourg
(49.6117°N, 6.1300°E)
Time: 03:55:23
(UTC+02:00)

FO-29 - Visible Passes

Search period start: 16 October 2019 00:00
Search period end: 26 October 2019 00:00
Orbit: 801 x 1321 km, 98.6° (Epoch: 15 October)

Date Brightness Start Highest point End Pass type
(mag) Time Alt. Az. Time Alt. Az. Time Alt. Az.
16 Oct 12.0 01:34:20 19° NE 01:34:20 19° NE 01:38:41 10° N visible
16 Oct 11.2 03:20:49 34° N 03:20:49 34° N 03:24:55 10° N visible
16 Oct 11.5 05:07:19 18° NW 05:07:19 18° NW 05:09:29 10° NNW visible
16 Oct 12.4 19:31:57 10° N 19:36:11 16° NW 19:40:23 10° WNW visible
17 Oct 12.4 00:40:01 10° NE 00:40:15 10° NNE 00:40:29 10° NNE visible
17 Oct 11.5 02:25:13 28° NNE 02:25:13 28° NNE 02:29:33 10° N visible
17 Oct 11.2 04:11:42 28° NNW 04:11:42 28° NNW 04:15:02 10° NNW visible
18 Oct 12.0 01:29:37 18° NE 01:29:37 18° NE 01:33:45 10° N visible
18 Oct 11.3 03:16:06 32° N 03:16:06 32° N 03:20:02 10° N visible
18 Oct 11.6 05:02:36 18° NW 05:02:36 18° NW 05:04:42 10° NNW visible
18 Oct 12.4 19:26:57 10° N 19:31:21 16° NW 19:35:43 10° WNW visible
19 Oct 11.6 02:20:30 27° NNE 02:20:30 27° NNE 02:24:39 10° N visible
19 Oct 11.3 04:07:00 27° NNW 04:07:00 27° NNW 04:10:11 10° NNW visible
20 Oct 12.1 01:24:54 17° NE 01:24:54 17° NE 01:28:49 10° N visible
20 Oct 11.4 03:11:24 31° N 03:11:24 31° N 03:15:09 10° N visible
20 Oct 11.6 04:57:54 18° NW 04:57:54 18° NW 04:59:54 10° NNW visible
20 Oct 12.3 19:21:57 10° N 19:26:32 17° NW 19:31:01 10° W visible
21 Oct 11.7 02:15:49 25° NNE 02:15:49 25° NNE 02:19:45 10° N visible
21 Oct 11.4 04:02:18 26° NNW 04:02:18 26° NNW 04:05:19 10° NNW visible
22 Oct 12.1 01:20:14 17° NE 01:20:14 17° NE 01:23:52 10° N visible
22 Oct 11.5 03:06:44 29° N 03:06:44 29° N 03:10:15 10° N visible
22 Oct 11.7 04:53:13 18° NW 04:53:13 18° NW 04:55:05 10° NNW visible
22 Oct 12.3 19:16:59 10° N 19:21:42 18° NW 19:26:18 10° W visible
23 Oct 11.8 02:11:09 24° NNE 02:11:09 24° NNE 02:14:50 10° N visible
23 Oct 11.5 03:57:38 25° NNW 03:57:38 25° NNW 04:00:28 10° NNW visible
24 Oct 12.2 01:15:34 16° NNE 01:15:34 16° NNE 01:18:54 10° N visible
24 Oct 11.6 03:02:03 27° N 03:02:03 27° N 03:05:22 10° N visible
24 Oct 11.8 04:48:33 17° NNW 04:48:33 17° NNW 04:50:17 10° NNW visible
24 Oct 12.3 19:12:01 10° N 19:16:52 18° NW 19:21:33 10° W visible
25 Oct 11.9 02:06:29 23° NNE 02:06:29 23° NNE 02:09:54 10° N visible
25 Oct 11.6 03:52:59 23° NNW 03:52:59 23° NNW 03:55:36 10° NNW visible
25 Oct 12.6 20:04:53 10° NNW 20:05:35 10° NNW 20:06:17 10° NW visible
